When you browse on this site, cookies collect data to enhance your experience and personalize the content and advertising you see.
Visit our Privacy Policy to learn more. By continuing to use the site, you agree to this use of cookies and data.

Hourly Weather Gold Coast

Today, 2 July, Thursday

Time Temperature Precipitation Wind Pressure Humidity
00:00 +13°C° 0 mm 2 mps 762 mmHg 87%
01:00 +13°C° 0 mm 2 mps 762 mmHg 88%
02:00 +13°C° 0 mm 2 mps 762 mmHg 88%
03:00 +13°C° 0 mm 2 mps 762 mmHg 89%
04:00 +13°C° 0 mm 2 mps 762 mmHg 86%
05:00 +13°C° 0 mm 2 mps 762 mmHg 87%
06:00 +12°C° 0 mm 2 mps 762 mmHg 87%
07:00 +12°C° 0 mm 2 mps 763 mmHg 88%
08:00 +15°C° 0 mm 2 mps 763 mmHg 76%
09:00 +18°C° 0 mm 2 mps 763 mmHg 64%
10:00 +21°C° 0 mm 2 mps 763 mmHg 53%
11:00 +21°C° 0 mm 2 mps 762 mmHg 50%
12:00 +23°C° 0 mm 2 mps 762 mmHg 47%
13:00 +24°C° 0 mm 3 mps 761 mmHg 44%
14:00 +22°C° 0 mm 3 mps 761 mmHg 48%
15:00 +22°C° 0 mm 3 mps 761 mmHg 52%
16:00 +21°C° 0 mm 3 mps 761 mmHg 56%
17:00 +19°C° 0 mm 3 mps 761 mmHg 65%
18:00 +17°C° 0 mm 3 mps 762 mmHg 73%
19:00 +14°C° 0 mm 3 mps 762 mmHg 82%
20:00 +13°C° 0 mm 3 mps 762 mmHg 83%
21:00 +13°C° 0 mm 3 mps 762 mmHg 85%
22:00 +13°C° 0 mm 3 mps 763 mmHg 85%
23:00 +13°C° 0 mm 3 mps 763 mmHg 87%

Tomorrow, 3 July, Friday

Time Temperature Precipitation Wind Pressure Humidity
00:00 +14°C° 0 mm 2 mps 762 mmHg 89%
01:00 +14°C° 0 mm 2 mps 762 mmHg 91%
02:00 +13°C° 0 mm 2 mps 762 mmHg 91%
03:00 +12°C° 0 mm 3 mps 762 mmHg 91%
04:00 +12°C° 0 mm 3 mps 762 mmHg 92%
05:00 +12°C° 0 mm 3 mps 763 mmHg 91%
06:00 +13°C° 0 mm 2 mps 763 mmHg 90%
07:00 +13°C° 0 mm 2 mps 763 mmHg 88%
08:00 +16°C° 0 mm 3 mps 763 mmHg 77%
09:00 +18°C° 0 mm 3 mps 763 mmHg 66%
10:00 +21°C° 0 mm 3 mps 763 mmHg 55%
11:00 +22°C° 0 mm 3 mps 763 mmHg 52%
12:00 +24°C° 0 mm 3 mps 762 mmHg 48%
13:00 +25°C° 0 mm 3 mps 761 mmHg 44%
14:00 +23°C° 0 mm 4 mps 761 mmHg 47%
15:00 +23°C° 0 mm 4 mps 760 mmHg 51%
16:00 +22°C° 0 mm 4 mps 760 mmHg 54%
17:00 +20°C° 0 mm 4 mps 760 mmHg 63%
18:00 +18°C° 0 mm 3 mps 760 mmHg 72%
19:00 +16°C° 0 mm 3 mps 760 mmHg 81%
20:00 +16°C° 0.1 mm 3 mps 761 mmHg 82%
21:00 +14°C° 0.1 mm 4 mps 761 mmHg 82%
22:00 +14°C° 0.1 mm 4 mps 761 mmHg 83%
23:00 +14°C° 0 mm 4 mps 760 mmHg 84%

Day after tomorrow, 4 July, Saturday

Time Temperature Precipitation Wind Pressure Humidity
00:00 +13°C° 0 mm 4 mps 760 mmHg 84%
01:00 +13°C° 0 mm 4 mps 760 mmHg 84%
02:00 +12°C° 0 mm 4 mps 760 mmHg 87%
03:00 +12°C° 0 mm 4 mps 760 mmHg 90%
04:00 +12°C° 0 mm 4 mps 760 mmHg 93%
05:00 +11°C° 0 mm 4 mps 760 mmHg 89%
06:00 +10°C° 0 mm 4 mps 760 mmHg 86%
07:00 +10°C° 0 mm 4 mps 760 mmHg 83%
08:00 +12°C° 0 mm 4 mps 761 mmHg 70%
09:00 +14°C° 0 mm 4 mps 761 mmHg 57%
10:00 +17°C° 0 mm 4 mps 761 mmHg 44%
11:00 +18°C° 0 mm 4 mps 760 mmHg 41%
12:00 +19°C° 0 mm 4 mps 760 mmHg 39%
13:00 +19°C° 0 mm 4 mps 759 mmHg 36%
14:00 +19°C° 0 mm 4 mps 759 mmHg 38%
15:00 +19°C° 0 mm 3 mps 759 mmHg 40%
16:00 +18°C° 0 mm 3 mps 759 mmHg 43%
17:00 +16°C° 0 mm 2 mps 760 mmHg 48%
18:00 +14°C° 0 mm 2 mps 760 mmHg 54%
19:00 +12°C° 0 mm 2 mps 760 mmHg 60%
20:00 +10°C° 0 mm 2 mps 761 mmHg 61%
21:00 +10°C° 0 mm 3 mps 761 mmHg 62%
22:00 +9°C° 0 mm 3 mps 762 mmHg 64%
23:00 +9°C° 0 mm 3 mps 762 mmHg 64%

5 July, Sunday

Time Temperature Precipitation Wind Pressure Humidity
00:00 +8°C° 0 mm 3 mps 761 mmHg 64%
01:00 +8°C° 0 mm 3 mps 761 mmHg 65%
02:00 +8°C° 0 mm 2 mps 761 mmHg 65%
03:00 +8°C° 0 mm 2 mps 761 mmHg 65%
04:00 +7°C° 0 mm 2 mps 762 mmHg 65%
05:00 +7°C° 0 mm 2 mps 762 mmHg 66%
06:00 +7°C° 0 mm 2 mps 762 mmHg 66%
07:00 +7°C° 0 mm 2 mps 763 mmHg 67%
08:00 +11°C° 0 mm 1 mps 763 mmHg 58%
09:00 +14°C° 0 mm 1 mps 763 mmHg 49%
10:00 +18°C° 0 mm 1 mps 763 mmHg 40%
11:00 +19°C° 0 mm 1 mps 762 mmHg 38%
12:00 +20°C° 0 mm 1 mps 762 mmHg 36%
13:00 +21°C° 0 mm 1 mps 761 mmHg 34%
14:00 +20°C° 0 mm 1 mps 762 mmHg 39%
15:00 +18°C° 0 mm 2 mps 762 mmHg 43%
16:00 +18°C° 0 mm 2 mps 762 mmHg 47%
17:00 +15°C° 0 mm 2 mps 762 mmHg 55%
18:00 +13°C° 0 mm 2 mps 763 mmHg 64%
19:00 +10°C° 0 mm 2 mps 763 mmHg 72%
20:00 +10°C° 0 mm 2 mps 763 mmHg 71%
21:00 +10°C° 0 mm 2 mps 764 mmHg 69%
22:00 +10°C° 0 mm 3 mps 764 mmHg 68%
23:00 +9°C° 0 mm 2 mps 764 mmHg 68%

6 July, Monday

Time Temperature Precipitation Wind Pressure Humidity
00:00 +9°C° 0 mm 2 mps 764 mmHg 68%
01:00 +9°C° 0 mm 2 mps 763 mmHg 67%
02:00 +9°C° 0 mm 2 mps 764 mmHg 68%
03:00 +9°C° 0 mm 2 mps 764 mmHg 69%
04:00 +9°C° 0 mm 2 mps 764 mmHg 71%
05:00 +9°C° 0 mm 2 mps 764 mmHg 73%
06:00 +9°C° 0 mm 2 mps 765 mmHg 75%
07:00 +9°C° 0 mm 2 mps 765 mmHg 78%
08:00 +13°C° 0 mm 2 mps 765 mmHg 68%
09:00 +16°C° 0 mm 2 mps 765 mmHg 58%
10:00 +19°C° 0 mm 2 mps 765 mmHg 49%
11:00 +20°C° 0 mm 2 mps 765 mmHg 45%
12:00 +21°C° 0 mm 2 mps 764 mmHg 42%
13:00 +22°C° 0 mm 3 mps 763 mmHg 38%
14:00 +21°C° 0 mm 3 mps 763 mmHg 43%
15:00 +20°C° 0 mm 3 mps 763 mmHg 47%
16:00 +19°C° 0 mm 3 mps 763 mmHg 52%
17:00 +17°C° 0 mm 3 mps 764 mmHg 59%
18:00 +14°C° 0 mm 3 mps 764 mmHg 67%
19:00 +12°C° 0 mm 3 mps 765 mmHg 74%
20:00 +11°C° 0 mm 3 mps 765 mmHg 76%
21:00 +11°C° 0 mm 3 mps 765 mmHg 78%
22:00 +10°C° 0 mm 3 mps 766 mmHg 80%
23:00 +10°C° 0 mm 3 mps 765 mmHg 81%

7 July, Tuesday

Time Temperature Precipitation Wind Pressure Humidity
00:00 +10°C° 0 mm 3 mps 765 mmHg 82%
01:00 +9°C° 0 mm 3 mps 765 mmHg 83%
02:00 +9°C° 0 mm 3 mps 765 mmHg 86%
03:00 +9°C° 0 mm 3 mps 765 mmHg 89%
04:00 +9°C° 0 mm 3 mps 765 mmHg 92%
05:00 +9°C° 0 mm 3 mps 765 mmHg 94%
06:00 +9°C° 0 mm 3 mps 765 mmHg 95%
07:00 +9°C° 0 mm 3 mps 766 mmHg 97%
08:00 +12°C° 0 mm 3 mps 766 mmHg 85%
09:00 +16°C° 0 mm 3 mps 766 mmHg 73%
10:00 +19°C° 0 mm 4 mps 766 mmHg 61%
11:00 +20°C° 0 mm 4 mps 765 mmHg 58%
12:00 +21°C° 0 mm 4 mps 765 mmHg 54%
13:00 +21°C° 0 mm 5 mps 764 mmHg 51%
14:00 +21°C° 0 mm 5 mps 764 mmHg 55%
15:00 +20°C° 0 mm 5 mps 764 mmHg 59%
16:00 +19°C° 0 mm 5 mps 764 mmHg 63%
17:00 +16°C° 0 mm 5 mps 764 mmHg 71%
18:00 +14°C° 0 mm 4 mps 765 mmHg 79%
19:00 +12°C° 0 mm 4 mps 765 mmHg 86%
20:00 +12°C° 0 mm 4 mps 765 mmHg 87%
21:00 +12°C° 0 mm 4 mps 766 mmHg 88%
22:00 +11°C° 0 mm 3 mps 766 mmHg 89%
23:00 +11°C° 0 mm 3 mps 766 mmHg 89%
Show more